﻿TIME_UTC_SECONDS;TIME_UTC_STR;AIR_TEMP;TRACK_TEMP;HUMIDITY;PRESSURE;WIND_SPEED;WIND_DIRECTION;RAIN;
1637220882;18/11/2021 7:34:42;11,34;7,5;81,05;993,37;9,77;41;0;
1637220942;18/11/2021 7:35:42;11,44;7,5;80,76;993,38;18,36;50;0;
1637221002;18/11/2021 7:36:42;11,49;7,6;80,15;993,38;16,03;36;0;
1637221062;18/11/2021 7:37:42;11,6;7,6;79,9;993,42;5,27;49;0;
1637221122;18/11/2021 7:38:42;11,7;7,7;79,48;993,46;7,28;36;0;
1637221182;18/11/2021 7:39:42;11,77;7,7;78,96;993,47;13,36;40;0;
1637221242;18/11/2021 7:40:42;11,85;7,7;78,82;993,48;13,11;44;0;
1637221302;18/11/2021 7:41:42;11,91;7,7;78,78;993,5;11,84;43;0;
1637221362;18/11/2021 7:42:42;11,97;7,8;78,35;993,51;21,6;39;0;
1637221422;18/11/2021 7:43:42;12,02;7,8;77,68;993,51;9,56;40;0;
1637221482;18/11/2021 7:44:42;12,08;7,9;77,65;993,53;6,57;52;0;
1637221542;18/11/2021 7:45:42;12,14;7,9;77,46;993,55;16,19;47;0;
1637221602;18/11/2021 7:46:42;12,17;7,9;77,32;993,55;18,03;48;0;
1637221662;18/11/2021 7:47:42;12,22;7,9;77,28;993,57;7,95;30;0;
1637221722;18/11/2021 7:48:42;12,25;7,9;77,05;993,59;9,99;40;0;
1637221782;18/11/2021 7:49:42;12,27;7,9;76,95;993,6;13,65;41;0;
1637221842;18/11/2021 7:50:42;12,32;8;76,53;993,6;7,56;36;0;
1637221902;18/11/2021 7:51:42;12,35;8;76,49;993,62;22,31;47;0;
1637221962;18/11/2021 7:52:42;12,36;8;76,01;993,62;7,49;41;0;
1637222022;18/11/2021 7:53:42;12,39;8,1;75,79;993,61;9,69;56;0;
1637222082;18/11/2021 7:54:42;12,38;8,2;76,01;993,63;18,83;37;0;
1637222142;18/11/2021 7:55:42;12,42;8,2;75,43;993,66;9,47;37;0;
1637222202;18/11/2021 7:56:42;12,47;8,2;75,45;993,69;22,83;39;0;
1637222262;18/11/2021 7:57:42;12,47;8,2;75,46;993,69;17,34;31;0;
1637222322;18/11/2021 7:58:42;12,52;8,3;75,28;993,69;13,09;33;0;
1637222382;18/11/2021 7:59:42;12,59;8,3;74,96;993,72;15,86;47;0;
1637222443;18/11/2021 8:00:43;12,59;8,3;74,8;993,72;9,52;39;0;
1637222503;18/11/2021 8:01:43;12,68;8,5;74,75;993,72;15,83;45;0;
1637222563;18/11/2021 8:02:43;12,7;8,5;74,37;993,72;7,98;40;0;
1637222623;18/11/2021 8:03:43;12,7;8,6;73,98;993,74;11,39;41;0;
1637222683;18/11/2021 8:04:43;12,82;8,6;74,08;993,74;8,45;39;0;
1637222743;18/11/2021 8:05:43;12,85;8,7;74,58;993,74;12,45;38;0;
1637222803;18/11/2021 8:06:43;12,85;8,7;74,8;993,72;11,23;43;0;
1637222863;18/11/2021 8:07:43;12,88;8,8;74,8;993,72;8,54;51;0;
1637222923;18/11/2021 8:08:43;12,83;8,9;74,56;993,73;12,62;45;0;
1637222983;18/11/2021 8:09:43;12,83;9;75,57;993,76;16,85;45;0;
1637223043;18/11/2021 8:10:43;12,81;9,1;74,55;993,76;15,62;41;0;
1637223103;18/11/2021 8:11:43;12,86;9,2;74,68;993,75;12,76;36;0;
1637223163;18/11/2021 8:12:43;12,86;9,2;74,64;993,75;9,02;41;0;
1637223223;18/11/2021 8:13:43;12,86;9,3;74,64;993,75;5,37;43;0;
1637223283;18/11/2021 8:14:43;12,95;9,3;74,3;993,72;17,31;43;0;
1637223343;18/11/2021 8:15:43;12,95;9,3;75,28;993,68;15,19;40;0,01;
1637223403;18/11/2021 8:16:43;12,92;9,4;75,28;993,68;12,12;34;0;
1637223463;18/11/2021 8:17:43;12,97;9,4;74,73;993,66;18,8;44;0;
1637223523;18/11/2021 8:18:43;12,97;9,4;74,46;993,66;11,17;44;0;
1637223583;18/11/2021 8:19:43;12,93;9,4;74,46;993,66;18,78;51;0;
1637223643;18/11/2021 8:20:43;12,98;9,3;74,3;993,69;9,78;53;0;
1637223703;18/11/2021 8:21:43;12,98;9,3;74,3;993,81;17,13;44;0;
1637223763;18/11/2021 8:22:43;13,02;9,3;74,3;993,81;19,06;41;0;
1637223823;18/11/2021 8:23:43;13,05;9,4;73,36;993,87;15,54;44;0;
1637223883;18/11/2021 8:24:43;13,05;9,4;73,21;993,89;12,27;43;0;
1637223943;18/11/2021 8:25:43;13,03;9,5;73,21;993,89;9,07;47;0;
1637224003;18/11/2021 8:26:43;13,03;9,5;73,23;993,89;14,98;43;0;
1637224063;18/11/2021 8:27:43;13,03;9,5;72,95;993,92;15,54;46;0;
1637224123;18/11/2021 8:28:43;13,04;9,5;72,95;993,92;10,97;45;0;
1637224183;18/11/2021 8:29:43;13,1;9,6;72,63;993,92;16,53;38;0;
1637224243;18/11/2021 8:30:43;13,14;9,7;73,34;993,94;14,1;41;0;
1637224303;18/11/2021 8:31:43;13,17;9,8;73,34;993,93;7,03;43;0;
1637224363;18/11/2021 8:32:43;13,16;9,9;73,2;993,93;5,22;44;0;
1637224423;18/11/2021 8:33:43;13,2;10;73,65;993,93;10,9;51;0;
1637224483;18/11/2021 8:34:43;13,23;10;73,65;993,94;12,42;47;0;
1637224543;18/11/2021 8:35:43;13,2;10;73,26;993,92;7;50;0;
1637224603;18/11/2021 8:36:43;13,21;10;73,07;993,92;8,14;46;0;
1637224663;18/11/2021 8:37:43;13,21;10;73,07;993,91;5,58;56;0;
1637224723;18/11/2021 8:38:43;13,24;10;73,48;993,9;2,39;47;0;
1637224783;18/11/2021 8:39:43;13,24;10;73,41;993,91;6,03;48;0;
1637224843;18/11/2021 8:40:43;13,21;9,9;73,41;993,89;2,26;46;0;
1637224904;18/11/2021 8:41:44;13,25;10;73,45;993,92;4,42;49;0;
1637224964;18/11/2021 8:42:44;13,26;10,2;72,66;993,91;12,88;51;0;
1637225024;18/11/2021 8:43:44;13,27;10,2;72,66;993,93;10,58;43;0;
1637225084;18/11/2021 8:44:44;13,29;10,2;72,97;993,94;5,54;43;0;
1637225144;18/11/2021 8:45:44;13,37;10,2;72,75;993,95;10,68;46;0;
1637225204;18/11/2021 8:46:44;13,42;10,4;72,52;994;5,55;47;0;
1637225264;18/11/2021 8:47:44;13,43;10,4;72,96;994,02;3,64;50;0;
1637225324;18/11/2021 8:48:44;13,51;10,5;72,97;994,04;5,01;46;0;
1637225384;18/11/2021 8:49:44;13,52;10,5;72,43;994,07;4,69;62;0;
1637225444;18/11/2021 8:50:44;13,58;10,6;72,04;994,07;2,54;57;0;
1637225504;18/11/2021 8:51:44;13,68;10,6;71,77;994,15;3,24;51;0;
1637225564;18/11/2021 8:52:44;13,56;10,7;72,23;994,12;5,9;55;0;
1637225624;18/11/2021 8:53:44;13,53;10,7;72,27;994,13;4,69;40;0,01;
1637225684;18/11/2021 8:54:44;13,5;10,8;72,19;994,13;10,59;52;0;
1637225744;18/11/2021 8:55:44;13,5;10,9;72,21;994,16;6,08;44;0;
1637225804;18/11/2021 8:56:44;13,5;10,9;72,23;994,14;18,42;47;0;
1637225864;18/11/2021 8:57:44;13,52;11;72,28;994,16;17,43;44;0;
1637225924;18/11/2021 8:58:44;13,5;11;72,68;994,15;8;306;0;
1637225984;18/11/2021 8:59:44;13,52;11;73,4;994,17;0,85;331;0;
1637226044;18/11/2021 9:00:44;13,69;11,1;72,31;994,12;1,67;230;0;
1637226104;18/11/2021 9:01:44;13,95;11,2;72,15;994,21;3,14;9;0,01;
1637226164;18/11/2021 9:02:44;14,04;11,3;71,59;994,23;3,12;329;0;
1637226224;18/11/2021 9:03:44;14,09;11,3;71,05;994,22;0;31;0;
1637226284;18/11/2021 9:04:44;14,14;11,4;70,48;994,24;10,42;54;0,02;
1637226344;18/11/2021 9:05:44;14,2;11,5;70,31;994,24;3,64;75;0;
1637226404;18/11/2021 9:06:44;14,22;11,5;69,58;994,19;2,77;104;0,03;
1637226464;18/11/2021 9:07:44;14,34;11,5;69,31;994,21;2,36;132;0;
1637226524;18/11/2021 9:08:44;14,46;11,6;69,39;994,26;4,05;275;0;
1637226584;18/11/2021 9:09:44;14,5;11,6;69,74;994,3;3,57;232;0,01;
1637226644;18/11/2021 9:10:44;14,49;11,6;70,78;994,32;11,66;267;0;
1637226704;18/11/2021 9:11:44;14,38;11,8;71,74;994,29;7,83;247;0;
1637226764;18/11/2021 9:12:44;14,07;11,8;72,75;994,26;1,57;242;0;
1637226824;18/11/2021 9:13:44;13,84;11,8;73,11;994,26;12,6;252;0;
1637226884;18/11/2021 9:14:44;13,79;11,9;73,15;994,31;19,37;255;0,01;
1637226944;18/11/2021 9:15:44;13,81;11,9;73,27;994,34;5,73;243;0;
1637227004;18/11/2021 9:16:44;13,8;11,9;73,31;994,31;5,58;222;0;
1637227064;18/11/2021 9:17:44;13,72;11,9;72,81;994,25;5,01;60;0;
1637227124;18/11/2021 9:18:44;13,82;11,9;72,6;994,29;19,09;49;0;
1637227184;18/11/2021 9:19:44;13,86;11,9;71,31;994,35;12,22;53;0;
1637227244;18/11/2021 9:20:44;13,77;11,9;71,3;994,32;11,43;50;0;
1637227304;18/11/2021 9:21:44;13,83;11,9;70,87;994,37;7,56;37;0;
1637227364;18/11/2021 9:22:44;13,86;11,9;71,19;994,36;13,52;52;0;
1637227425;18/11/2021 9:23:45;13,83;11,9;70,54;994,39;17,7;41;0;
1637227485;18/11/2021 9:24:45;13,67;11,9;71,04;994,34;14,39;24;0;
1637227545;18/11/2021 9:25:45;13,68;11,9;71,28;994,34;22,11;37;0;
1637227605;18/11/2021 9:26:45;13,71;12;71,01;994,35;0;34;0;
1637227665;18/11/2021 9:27:45;13,7;11,9;71,26;994,34;21,63;36;0;
1637227725;18/11/2021 9:28:45;13,78;11,9;70,89;994,36;21,6;24;0;
1637227785;18/11/2021 9:29:45;13,73;11,9;70,6;994,32;24,93;37;0;
